[Iaude] MPEC P39: 2024 PE [a=0.82,e=0.40,i=27.2,H=25.5]
    mpec at cfa.harvard.edu 
    mpec at cfa.harvard.edu
       
    Sat Aug  3 01:18:07 EDT 2024
    
    
  
M.P.E.C. 2024-P39                                Issued 2024 August 3, 05:16 UT
     The Minor Planet Electronic Circulars contain information on unusual
         minor planets, routine data on comets and natural satellites,
         and occasional editorial announcements.  They are published
    on behalf of Division F of the International Astronomical Union by the
          Minor Planet Center, Smithsonian Astrophysical Observatory,
                          Cambridge, MA 02138, U.S.A.
			  
             Prepared using the Tamkin Foundation Computer Network
                              MPC at CFA.HARVARD.EDU
            URL https://www.minorplanetcenter.net/    ISSN 1523-6714
                                    2024 PE                                     
Observations:
     K24P00E* C2024 08 01.47781523 29 56.206+30 18 22.08         20.86wXEP039F52
     K24P00E  C2024 08 01.48894423 30 03.898+30 17 19.22         21.34wXEP039F52
     K24P00E  C2024 08 01.50006723 30 11.660+30 16 15.24         21.39wXEP039F52
     K24P00E  C2024 08 01.51121123 30 19.307+30 15 11.44         20.92wXEP039F52
     K24P00E KC2024 08 01.95560 23 36 37.08 +29 24 33.9          19.6 GXEP039L51
     K24P00E KC2024 08 01.95663 23 36 37.97 +29 24 26.3          20.3 GXEP039L51
     K24P00E KC2024 08 01.95774 23 36 38.97 +29 24 18.4          19.7 GXEP039L51
     K24P00E KC2024 08 02.01116623 37 30.554+29 17 05.39         20.8 GVEP039J95
     K24P00E KC2024 08 02.01519423 37 34.186+29 16 35.54         20.1 GVEP039J95
     K24P00E KB2024 08 02.06540623 38 19.54 +29 10 44.3          20.4 GXEP039I93
     K24P00E KB2024 08 02.07560423 38 28.66 +29 09 26.3          20.4 GXEP039I93
     K24P00E KB2024 08 02.08569723 38 37.69 +29 08 06.9                XEP039I93
     K24P00E KC2024 08 02.29981823 42 17.49 +28 38 36.5          20.4 GVEP039H21
     K24P00E KC2024 08 02.30261323 42 20.24 +28 38 12.7          20.7 GVEP039H21
     K24P00E KC2024 08 02.30540923 42 23.00 +28 37 48.5          21.0 GVEP039H21
     K24P00E KC2024 08 02.30820423 42 25.70 +28 37 24.1          20.8 GVEP039H21
     K24P00E KC2024 08 02.31100023 42 28.45 +28 36 59.9          20.6 GVEP039H21
     K24P00E KB2024 08 03.05328623 58 01.181+26 19 59.59         19.9 VZEP039K74
     K24P00E KB2024 08 03.06826323 58 22.325+26 16 36.52         19.9 VZEP039K74
Observer details:
F52 Pan-STARRS 2, Haleakala.  Observers J. Herman, T. Lowe, P. Minguez, A.
    Schultz, I. Smith.  Measurers K. Chambers, T. de Boer, J. Fairlamb, H.
    Gao, M. Huber, C.-C. Lin, E. Magnier, Y. Ramanjooloo, R. Wainscoat, R.
    Weryk.  1.8-m Ritchey-Chretien + CCD.
H21 Astronomical Research Observatory, Westfield.  Observer R. Holmes.
    Measurers T. Linder, R. Holmes.  0.76-m f/3.0 astrograph + CCD.
I93 St Pardon de Conques.  Observer F. Losse.  0.40-m f/3.7 reflector + CMO.
J95 Great Shefford.  Observer P. Birtwhistle.  0.41-m f/6.3 Schmidt-Cassegrain
    + CCD.
K74 Muensterschwarzach Observatory, Schwarzach.  Observer C. Gerhard.  0.30-m
    f/3.75 reflector + CMO.
L51 MARGO, Nauchnyi.  Observer G. Borisov.  0.50-m f/1.9 reflector + CCD.
Orbital elements:
2024 PE                                                  Earth MOID = 0.0048 AU
Epoch 2024 Oct. 17.0 TT = JDT 2460600.5                 MPC                     
M 348.45717              (2000.0)            P               Q                  
n   1.32374578     Peri.  323.76362     -0.17589505     -0.92705989             
a   0.8214850      Node   133.62030     +0.97598887     -0.20812704             
e   0.4038826      Incl.   27.21644     +0.12847825     +0.31183824             
P   0.74           H   25.50          G   0.15           U   7                  
Residuals in seconds of arc
240801 F52  0.1+  0.1+    240802 J95  0.5-  0.5+    240802 H21  0.2+  0.1-
240801 F52  0.0   0.0     240802 J95  0.1-  0.2+    240802 H21  0.4-  0.4-
240801 F52 (0.9+  0.6-)   240802 I93  0.0   0.2+    240802 H21  0.4-  0.3-
240801 F52  0.1-  0.0     240802 I93  0.2+  0.4+    240803 K74  0.0   0.2+
240801 L51  0.1+  0.5-    240802 I93  0.1+  0.9-    240803 K74  0.4+  0.3+
240801 L51  0.2+  0.7-    240802 H21  0.0   0.2-
240801 L51  0.9+  0.6-    240802 H21  0.0   0.0
Ephemeris:
2024 PE                  a,e,i = 0.82, 0.40, 27                  q = 0.4897
Date    TT    R. A. (2000) Decl.     Delta      r    Elong.  Phase     V
2024 07 04    22 22 29.1 +34 00 42   0.3038  1.1312   104.4    60.5    25.3
...
2024 07 19    22 37 52.9 +34 55 00   0.1687  1.0907   112.0    59.7    24.0
...
2024 07 27    22 54 21.3 +34 05 38   0.09510 1.0607   116.0    59.3    22.6
...
2024 08 02    23 37 12.5 +29 20 14   0.04033 1.0343   117.9    60.2    20.8
2024 08 03    23 56 37.6 +26 33 58   0.03156 1.0296   117.3    61.1    20.2
2024 08 04    00 28 08.8 +21 21 58   0.02323 1.0248   115.4    63.4    19.6
...
2024 08 10    08 49 47.5 -41 55 47   0.03810 0.9940    57.9   120.2    23.3
...
2024 08 18    09 53 07.5 -38 51 36   0.1113  0.9477    52.0   122.7    25.7
...
2024 09 02    10 10 01.1 -35 07 21   0.2515  0.8457    43.8   124.3    27.3
A. U. Tomatic                (C) Copyright 2024 MPC           M.P.E.C. 2024-P39
    
    
More information about the Iaude
mailing list